timestamp,wind_dir_avg,wind_spd_max_dir,wind_spd_avg,wind_spd_gust,battery_voltage,lat,long
2018-12-26 00:00:00+00:00,320.0,321.0,7.68,8.84,,47.59359,-54.27349
2018-12-26 00:10:00+00:00,322.0,325.0,7.67,8.67,,47.59359,-54.27349
2018-12-26 00:20:00+00:00,309.0,298.0,6.7,7.81,,47.59359,-54.27349
2018-12-26 00:30:00+00:00,299.0,299.0,6.54,7.88,,47.59359,-54.27349
2018-12-26 00:40:00+00:00,307.0,306.0,8.05,9.05,,47.59359,-54.27349
2018-12-26 00:50:00+00:00,308.0,320.0,8.72,9.6,,47.59359,-54.27349
2018-12-26 01:00:00+00:00,315.0,319.0,8.31,10.49,,47.59359,-54.27349
2018-12-26 01:10:00+00:00,324.0,322.0,7.59,9.27,,47.59359,-54.27349
2018-12-26 01:20:00+00:00,321.0,331.0,6.86,9.68,,47.59359,-54.27349
2018-12-26 01:30:00+00:00,310.0,303.0,7.32,8.49,,47.59359,-54.27349
2018-12-26 01:40:00+00:00,304.0,308.0,8.48,10.2,,47.59359,-54.27349
2018-12-26 01:50:00+00:00,297.0,286.0,5.65,6.69,,47.59359,-54.27349
2018-12-26 02:00:00+00:00,288.0,283.0,6.78,7.88,,47.59359,-54.27349
2018-12-26 02:10:00+00:00,282.0,282.0,5.65,6.71,,47.59359,-54.27349
2018-12-26 02:20:00+00:00,300.0,301.0,6.15,7.2,,47.59359,-54.27349
2018-12-26 02:30:00+00:00,284.0,279.0,4.92,5.88,,47.59359,-54.27349
2018-12-26 02:40:00+00:00,288.0,295.0,5.77,7.01,,47.59359,-54.27349
2018-12-26 02:50:00+00:00,293.0,294.0,5.58,6.32,,47.59359,-54.27349
2018-12-26 03:00:00+00:00,306.0,308.0,5.87,6.76,,47.59359,-54.27349
2018-12-26 03:10:00+00:00,289.0,286.0,6.31,7.49,,47.59359,-54.27349
2018-12-26 03:20:00+00:00,293.0,288.0,6.57,7.85,,47.59359,-54.27349
2018-12-26 03:30:00+00:00,276.0,278.0,6.81,8.07,,47.59359,-54.27349
2018-12-26 03:40:00+00:00,264.0,259.0,6.56,8.4,,47.59359,-54.27349
2018-12-26 03:50:00+00:00,274.0,278.0,7.89,9.11,,47.59359,-54.27349
2018-12-26 04:00:00+00:00,277.0,277.0,7.9,8.67,,47.59359,-54.27349
2018-12-26 04:10:00+00:00,271.0,271.0,8.08,9.16,,47.59359,-54.27349
2018-12-26 04:20:00+00:00,272.0,277.0,7.54,8.89,,47.59359,-54.27349
2018-12-26 04:30:00+00:00,264.0,269.0,7.38,8.58,,47.59359,-54.27349
2018-12-26 04:40:00+00:00,275.0,273.0,7.23,8.22,,47.59359,-54.27349
2018-12-26 04:50:00+00:00,291.0,285.0,6.33,7.9,,47.59359,-54.27349
2018-12-26 05:00:00+00:00,279.0,283.0,7.4,8.38,,47.59359,-54.27349
2018-12-26 05:10:00+00:00,272.0,272.0,7.84,9.87,,47.59359,-54.27349
2018-12-26 05:20:00+00:00,266.0,262.0,6.89,8.54,,47.59359,-54.27349
2018-12-26 05:30:00+00:00,275.0,271.0,5.46,6.64,,47.59359,-54.27349
2018-12-26 05:40:00+00:00,299.0,297.0,8.85,10.56,,47.59359,-54.27349
2018-12-26 05:50:00+00:00,299.0,301.0,8.89,10.57,,47.59359,-54.27349
2018-12-26 06:00:00+00:00,303.0,308.0,10.05,12.75,,47.59359,-54.27349
2018-12-26 06:10:00+00:00,299.0,297.0,10.05,11.89,,47.59359,-54.27349
2018-12-26 06:20:00+00:00,301.0,301.0,8.11,9.22,,47.59359,-54.27349
2018-12-26 06:30:00+00:00,302.0,296.0,7.9,10.01,,47.59359,-54.27349
2018-12-26 06:40:00+00:00,298.0,300.0,7.85,8.89,,47.59359,-54.27349
2018-12-26 06:50:00+00:00,305.0,308.0,7.98,9.53,,47.59359,-54.27349
2018-12-26 07:00:00+00:00,300.0,299.0,10.79,12.49,,47.59359,-54.27349
2018-12-26 07:10:00+00:00,311.0,313.0,9.73,10.92,,47.59359,-54.27349
2018-12-26 07:20:00+00:00,311.0,311.0,11.06,12.4,,47.59359,-54.27349
2018-12-26 07:30:00+00:00,314.0,319.0,9.75,11.27,,47.59359,-54.27349
2018-12-26 07:40:00+00:00,307.0,307.0,7.64,8.9,,47.59359,-54.27349
2018-12-26 07:50:00+00:00,303.0,308.0,9.64,11.58,,47.59359,-54.27349
2018-12-26 08:00:00+00:00,300.0,300.0,10.27,12.56,,47.59359,-54.27349
2018-12-26 08:10:00+00:00,292.0,300.0,8.9,11.58,,47.59359,-54.27349
2018-12-26 08:20:00+00:00,295.0,289.0,8.55,10.5,,47.59359,-54.27349
2018-12-26 08:30:00+00:00,302.0,305.0,9.39,10.65,,47.59359,-54.27349
2018-12-26 08:40:00+00:00,300.0,302.0,8.17,9.37,,47.59359,-54.27349
2018-12-26 08:50:00+00:00,289.0,291.0,9.67,11.27,,47.59359,-54.27349
2018-12-26 09:00:00+00:00,288.0,289.0,11.33,13.75,,47.59359,-54.27349
2018-12-26 09:10:00+00:00,312.0,307.0,10.88,12.37,,47.59359,-54.27349
2018-12-26 09:20:00+00:00,315.0,306.0,12.51,14.85,,47.59359,-54.27349
2018-12-26 09:30:00+00:00,307.0,300.0,11.15,12.32,,47.59359,-54.27349
2018-12-26 09:40:00+00:00,312.0,315.0,12.48,13.66,,47.59359,-54.27349
2018-12-26 09:50:00+00:00,310.0,307.0,9.54,10.71,,47.59359,-54.27349
2018-12-26 10:00:00+00:00,311.0,308.0,9.29,11.85,,47.59359,-54.27349
2018-12-26 10:10:00+00:00,319.0,321.0,8.32,9.97,,47.59359,-54.27349
2018-12-26 10:20:00+00:00,309.0,314.0,8.41,10.11,,47.59359,-54.27349
2018-12-26 10:30:00+00:00,303.0,304.0,6.8,8.31,,47.59359,-54.27349
2018-12-26 10:40:00+00:00,304.0,307.0,8.23,10.45,,47.59359,-54.27349
2018-12-26 10:50:00+00:00,301.0,293.0,8.33,9.46,,47.59359,-54.27349
2018-12-26 11:00:00+00:00,300.0,311.0,8.53,10.88,,47.59359,-54.27349
2018-12-26 11:10:00+00:00,302.0,296.0,10.06,12.07,,47.59359,-54.27349
2018-12-26 11:20:00+00:00,294.0,293.0,9.69,10.92,,47.59359,-54.27349
2018-12-26 11:30:00+00:00,304.0,308.0,8.7,10.56,,47.59359,-54.27349
2018-12-26 11:40:00+00:00,294.0,291.0,9.09,10.32,,47.59359,-54.27349
2018-12-26 11:50:00+00:00,287.0,286.0,9.87,11.93,,47.59359,-54.27349
2018-12-26 12:00:00+00:00,292.0,296.0,9.12,11.45,,47.59359,-54.27349
2018-12-26 12:10:00+00:00,290.0,290.0,11.0,12.59,,47.59359,-54.27349
2018-12-26 12:20:00+00:00,291.0,290.0,10.78,13.15,,47.59359,-54.27349
2018-12-26 12:30:00+00:00,298.0,290.0,10.81,14.01,,47.59359,-54.27349
2018-12-26 12:40:00+00:00,303.0,306.0,10.59,11.86,,47.59359,-54.27349
2018-12-26 12:50:00+00:00,306.0,299.0,10.76,13.03,,47.59359,-54.27349
2018-12-26 13:00:00+00:00,302.0,308.0,12.05,14.41,,47.59359,-54.27349
2018-12-26 13:10:00+00:00,299.0,304.0,12.8,15.82,,47.59359,-54.27349
2018-12-26 13:20:00+00:00,307.0,313.0,11.33,14.53,,47.59359,-54.27349
2018-12-26 13:30:00+00:00,309.0,302.0,11.81,13.27,,47.59359,-54.27349
2018-12-26 13:40:00+00:00,309.0,310.0,10.56,12.63,,47.59359,-54.27349
2018-12-26 13:50:00+00:00,284.0,284.0,8.92,11.06,,47.59359,-54.27349
2018-12-26 14:00:00+00:00,298.0,301.0,9.8,11.48,,47.59359,-54.27349
2018-12-26 14:10:00+00:00,314.0,318.0,10.91,12.66,,47.59359,-54.27349
2018-12-26 14:20:00+00:00,296.0,294.0,9.58,11.98,,47.59359,-54.27349
2018-12-26 14:30:00+00:00,307.0,310.0,10.41,12.51,,47.59359,-54.27349
2018-12-26 14:40:00+00:00,316.0,316.0,13.12,15.14,,47.59359,-54.27349
2018-12-26 14:50:00+00:00,286.0,282.0,13.1,14.75,,47.59359,-54.27349
2018-12-26 15:00:00+00:00,305.0,298.0,10.69,14.53,,47.59359,-54.27349
2018-12-26 15:10:00+00:00,287.0,267.0,10.8,12.6,,47.59359,-54.27349
2018-12-26 15:20:00+00:00,298.0,293.0,11.5,13.53,,47.59359,-54.27349
2018-12-26 15:30:00+00:00,311.0,313.0,9.27,10.96,,47.59359,-54.27349
2018-12-26 15:40:00+00:00,294.0,295.0,12.26,13.89,,47.59359,-54.27349
2018-12-26 15:50:00+00:00,303.0,304.0,12.32,14.35,,47.59359,-54.27349
2018-12-26 16:00:00+00:00,308.0,304.0,11.01,15.01,,47.59359,-54.27349
2018-12-26 16:10:00+00:00,309.0,314.0,11.99,14.48,,47.59359,-54.27349
2018-12-26 16:20:00+00:00,306.0,303.0,11.22,13.47,,47.59359,-54.27349
2018-12-26 16:30:00+00:00,315.0,319.0,11.44,13.44,,47.59359,-54.27349
2018-12-26 16:40:00+00:00,315.0,316.0,9.07,10.4,,47.59359,-54.27349
2018-12-26 16:50:00+00:00,297.0,304.0,12.62,15.83,,47.59359,-54.27349
2018-12-26 17:00:00+00:00,291.0,289.0,11.62,14.16,,47.59359,-54.27349
2018-12-26 17:10:00+00:00,280.0,280.0,12.56,14.48,,47.59359,-54.27349
2018-12-26 17:20:00+00:00,290.0,299.0,11.41,12.95,,47.59359,-54.27349
2018-12-26 17:30:00+00:00,297.0,294.0,10.95,13.26,,47.59359,-54.27349
2018-12-26 17:40:00+00:00,293.0,290.0,11.12,13.23,,47.59359,-54.27349
2018-12-26 17:50:00+00:00,297.0,288.0,9.06,11.48,,47.59359,-54.27349
2018-12-26 18:00:00+00:00,301.0,308.0,8.94,10.46,,47.59359,-54.27349
2018-12-26 18:10:00+00:00,306.0,303.0,10.1,12.51,,47.59359,-54.27349
2018-12-26 18:20:00+00:00,303.0,295.0,8.3,9.36,,47.59359,-54.27349
2018-12-26 18:30:00+00:00,306.0,302.0,9.89,12.35,,47.59359,-54.27349
2018-12-26 18:40:00+00:00,309.0,308.0,10.09,11.58,,47.59359,-54.27349
2018-12-26 18:50:00+00:00,298.0,301.0,9.69,11.14,,47.59359,-54.27349
2018-12-26 19:00:00+00:00,302.0,298.0,8.67,9.76,,47.59359,-54.27349
2018-12-26 19:10:00+00:00,284.0,282.0,8.64,9.56,,47.59359,-54.27349
2018-12-26 19:20:00+00:00,283.0,287.0,12.77,14.51,,47.59359,-54.27349
2018-12-26 19:30:00+00:00,300.0,302.0,10.16,12.13,,47.59359,-54.27349
2018-12-26 19:40:00+00:00,291.0,306.0,8.33,9.86,,47.59359,-54.27349
2018-12-26 19:50:00+00:00,308.0,308.0,10.77,14.07,,47.59359,-54.27349
2018-12-26 20:00:00+00:00,301.0,300.0,10.29,12.41,,47.59359,-54.27349
2018-12-26 20:10:00+00:00,309.0,310.0,9.78,10.98,,47.59359,-54.27349
2018-12-26 20:20:00+00:00,300.0,295.0,10.95,13.43,,47.59359,-54.27349
2018-12-26 20:30:00+00:00,298.0,300.0,10.37,12.44,,47.59359,-54.27349
2018-12-26 20:40:00+00:00,299.0,300.0,10.3,11.72,,47.59359,-54.27349
2018-12-26 20:50:00+00:00,305.0,304.0,10.52,12.34,,47.59359,-54.27349
2018-12-26 21:00:00+00:00,308.0,312.0,12.29,14.65,,47.59359,-54.27349
2018-12-26 21:10:00+00:00,302.0,303.0,10.84,12.78,,47.59359,-54.27349
2018-12-26 21:20:00+00:00,304.0,299.0,10.99,14.38,,47.59359,-54.27349
2018-12-26 21:30:00+00:00,298.0,292.0,12.62,14.64,,47.59359,-54.27349
2018-12-26 21:40:00+00:00,297.0,290.0,12.66,15.2,,47.59359,-54.27349
2018-12-26 21:50:00+00:00,302.0,301.0,12.16,15.36,,47.59359,-54.27349
2018-12-26 22:00:00+00:00,303.0,299.0,12.8,15.26,,47.59359,-54.27349
2018-12-26 22:10:00+00:00,299.0,295.0,12.48,14.33,,47.59359,-54.27349
2018-12-26 22:20:00+00:00,302.0,298.0,13.46,15.77,,47.59359,-54.27349
2018-12-26 22:30:00+00:00,306.0,309.0,14.94,17.84,,47.59359,-54.27349
2018-12-26 22:40:00+00:00,303.0,299.0,12.45,13.9,,47.59359,-54.27349
2018-12-26 22:50:00+00:00,301.0,302.0,13.07,14.99,,47.59359,-54.27349
2018-12-26 23:00:00+00:00,307.0,304.0,11.1,13.15,,47.59359,-54.27349
2018-12-26 23:10:00+00:00,307.0,306.0,11.44,13.31,,47.59359,-54.27349
2018-12-26 23:20:00+00:00,304.0,298.0,11.1,12.33,,47.59359,-54.27349
2018-12-26 23:30:00+00:00,305.0,312.0,12.19,14.47,,47.59359,-54.27349
2018-12-26 23:40:00+00:00,305.0,307.0,10.85,12.34,,47.59359,-54.27349
2018-12-26 23:50:00+00:00,301.0,301.0,11.75,13.93,,47.59359,-54.27349
